Location: Allie Creek
(37.5926°N, 89.8526°W)
Time: 11:34:59
(UTC+00:00)

ADEOS Rocket - Pass Details

Date: 26 September 2023
Orbit: 858 x 1306 km, 98.7° (Epoch: 28 November)

Event Time Altitude Azimuth Distance (km) Brightness Sun altitude
Exits shadow 02:15:26 53° 153° (SSE) 1,559 3.7 -28.6°
Maximum altitude 02:17:33 82° 75° (ENE) 1,315 3.4 -29.0°
Drops below altitude 10° 02:25:10 10° 349° (N) 3,244 6.1 -30.4°
Sets 02:27:46 0° 349° (NNW) 4,173 6.8 -30.8°
